{"data":{"norad_id":57785,"intl_designator":"2023-134Q","name":"STARLINK-30381","alt_names":[],"object_type":"PAYLOAD","status":"ACTIVE","operator":null,"country":"US","launch_date":"2023-09-04","launch_site_code":"AFETR","launch_vehicle":null,"mission":null,"orbit_class":"UNKNOWN","rcs_meters":null,"size_class":null,"mass_kg":null,"dimensions":null,"purposes":["comms"],"wikipedia_slug":null,"has_3d_model":false,"image_url":null,"decayed_at":null,"tle_current":{"epoch":"2026-05-24T23:27:14.634144Z","epoch_age_seconds":80059,"freshness":"FRESH","line1":"1 57785U 23134Q   26144.97725271  .00002815  00000+0  11178-3 0  9998","line2":"2 57785  43.0032 123.5883 0001293 276.5558  83.5146 15.27581536151174","mean_motion":15.27581536,"eccentricity":0.0001293,"inclination_deg":43.0032,"raan_deg":123.5883,"arg_perigee_deg":276.5558,"mean_anomaly_deg":83.5146,"bstar":0.00011178,"rev_number":15117,"period_min":94.266653927401,"perigee_km":482.15734593941,"apogee_km":483.93164747446,"semimajor_km":6861.1814967069,"source":"CELESTRAK","updated_at":"2026-05-25T13:38:18.406771Z"}}}